Content
SEND FEEDBACK

Daily
Averages
Monthly
Summary
Mexico

CANCUN, QUINTANA ROO


Home > North America > Mexico > Quintana Roo
Elevation: 30 feet     Latitude: 21 09N     Longitude: 086 49W

WEATHER
 
SELECT A DAY
Number of Records: 163,746;   Date Range: 1/1/95 - 7/30/14
 
SHARE

PRINT THIS DATA

[ ← Previous Day ]
WEATHER ALMANAC - APRIL 17, 2013
[ Next Day → ]
[ °C ]   °F
Weather ElementAverageHighLow
Temperature81.1 °F86 °F (12:45 pm)77 °F (5:45 am)
Dewpoint72.1 °F75.2 °F (1:50 am)39.2 °F (7:40 am)
Humidity76 %89 % (1:50 am)23 % (7:40 am)
Barometer29.95 in29.99 in (9:46 am)29.90 in (4:41 pm)
Wind Speed11.4 mph18.4 mph (11:42 am)
Weather ElementAverage
Visibility7 mi
Wind DirectionESE (119.1 °)

Weather ElementTotal
Precipitation---
Cooling Degree Days16.5 (Base 65)
Growing Degree Days31.5 (Base 50)
Averaged from 23 records on April 17, 2013
WEATHER CONDITIONS BREAKOUT
WIND DIRECTION BREAKOUT
WEATHER BY HOUR - APRIL 17, 2013
[ °C ]   °F
Local TimeTemperatureDewpointHumidityBarometerVisibilityWind DirectionWind SpeedGust SpeedPrecipitationEventsConditions
1:50 AM78.8 °F75.2 °F89 %29.96 in7.0 miESE (110°)9.2 mphScattered Clouds
2:40 AM78.8 °F75.2 °F89 %29.95 in7.0 miESE (110°)6.9 mphScattered Clouds
3:44 AM78.8 °F75.2 °F89 %29.93 in7.0 miESE (110°)8.1 mphScattered Clouds
4:40 AM78.8 °F75.2 °F89 %29.95 in7.0 miEast (100°)8.1 mphScattered Clouds
5:45 AM77.0 °F73.4 °F89 %29.96 in7.0 miESE (120°)3.5 mphScattered Clouds
6:47 AM77.0 °F73.4 °F89 %29.96 in7.0 miEast (100°)4.6 mphScattered Clouds
7:40 AM80.6 °F39.2 °F23 %29.98 in7.0 miEast (100°)10.4 mphPartly Cloudy
8:42 AM82.4 °F75.2 °F79 %29.98 in7.0 miEast (100°)16.1 mphMostly Cloudy
9:46 AM82.4 °F75.2 °F79 %29.99 in7.0 miESE (120°)17.3 mphMostly Cloudy
10:43 AM84.2 °F75.2 °F74 %29.97 in7.0 miSE (130°)10.4 mphMostly Cloudy
11:42 AM84.2 °F73.4 °F70 %29.96 in7.0 miSE (130°)18.4 mphMostly Cloudy
12:45 PM86.0 °F73.4 °F66 %29.96 in7.0 miSE (130°)16.1 mphMostly Cloudy
1:44 PM84.2 °F73.4 °F70 %29.94 in7.0 miSE (140°)15.0 mphMostly Cloudy
2:45 PM84.2 °F71.6 °F66 %29.93 in7.0 miSE (140°)16.1 mphMostly Cloudy
3:42 PM84.2 °F71.6 °F66 %29.92 in7.0 miSE (130°)16.1 mphMostly Cloudy
4:41 PM82.4 °F71.6 °F70 %29.90 in7.0 miSE (130°)15.0 mphMostly Cloudy
5:48 PM82.4 °F71.6 °F70 %29.91 in7.0 miESE (110°)10.4 mphMostly Cloudy
6:45 PM80.6 °F71.6 °F74 %29.92 in7.0 miSE (130°)15.0 mphScattered Clouds
7:40 PM80.6 °F73.4 °F79 %29.93 in7.0 miESE (120°)6.9 mphScattered Clouds
8:42 PM80.6 °F73.4 °F79 %29.94 in7.0 miESE (110°)10.4 mphScattered Clouds
9:48 PM78.8 °F73.4 °F83 %29.91 in7.0 miSE (130°)10.4 mphScattered Clouds
10:48 PM78.8 °F73.4 °F83 %29.95 in7.0 miESE (110°)9.2 mphPartly Cloudy
11:47 PM78.8 °F73.4 °F83 %29.94 in7.0 miSE (130°)8.1 mphClear
Hourly data recorded from MMUN, located miles away from Cancun, Quintana Roo







STORIES FROM OUR PARTNERS